EW1558 Weather Reports


Display with metric or nautical units.
time (UTC)temp
F
wind
direction
speed
MPH
gust
MPH
rain 1hr
in
rain 24hr
in
rain mn
in
humidity
%
barometer
mb
20260901031539 76 209 0.0 0.0 0.00 0.45 0.45 95 1010.8
20260901030032 76 209 0.0 0.0 0.00 0.45 0.45 95 1011.0
20260901024531 76 209 0.0 0.0 0.00 0.45 0.45 95 1011.0
20260901023033 76 209 0.0 0.0 0.00 0.45 0.45 96 1011.2
20260901021537 76 209 0.0 0.0 0.00 0.45 0.45 96 1011.1
20260901020054 76 209 0.0 0.0 0.00 0.45 0.45 96 1011.0
20260901014530 75 209 0.0 0.0 0.00 0.45 0.45 94 1010.9
20260901013029 76 209 0.0 0.0 0.00 0.45 0.45 97 1010.9
20260901011537 76 209 0.0 0.0 0.00 0.45 0.45 97 1010.8
20260901010029 76 209 0.0 0.0 0.00 0.45 0.45 98 1010.7
20260901004528 76 209 0.0 0.0 0.00 0.45 0.45 97 1010.5
20260901003030 74 209 0.0 4.0 0.00 0.45 0.45 95 1010.5
20260901001528 78 176 0.0 0.0 0.00 0.45 0.45 93 1010.4
20260901000025 79 176 0.0 0.0 0.00 0.45 0.45 92 1010.2
20260831234526 79 176 0.0 0.0 0.00 0.47 0.45 92 1010.3
20260831233040 80 176 0.0 0.0 0.00 0.47 0.45 90 1010.6
20260831231526 81 176 0.0 0.0 0.00 0.47 0.45 88 1010.6
20260831230024 82 176 0.0 5.0 0.00 0.47 0.45 86 1010.3
20260831224524 82 169 0.0 4.0 0.00 0.47 0.45 88 1010.2
20260831223024 80 193 0.0 5.0 0.00 0.47 0.45 89 1010.0
20260831221524 79 258 3.0 8.0 0.00 0.47 0.45 91 1009.8
20260831220024 78 258 0.0 5.0 0.00 0.47 0.45 93 1009.7
20260831214522 76 178 0.0 3.0 0.02 0.48 0.45 94 1009.7
20260831213030 76 203 0.0 9.0 0.06 0.48 0.45 93 1009.8
20260831211520 75 195 1.0 8.0 0.13 0.48 0.45 94 1009.3
20260831210021 74 260 2.0 10.0 0.20 0.48 0.45 94 1008.5
20260831204517 74 232 1.0 10.0 0.19 0.46 0.43 94 1009.3
20260831203018 75 205 4.0 10.0 0.13 0.40 0.37 90 1010.2
20260831201517 79 86 0.0 3.0 0.06 0.33 0.30 83 1010.9
20260831200022 81 175 0.0 5.0 0.01 0.28 0.25 75 1010.4
20260831194531 82 186 1.0 7.0 0.00 0.36 0.24 71 1010.0
20260831193013 82 210 2.0 9.0 0.00 0.36 0.24 69 1009.8
20260831191512 84 191 2.0 6.0 0.00 0.36 0.24 66 1010.2
20260831190013 85 162 1.0 6.0 0.00 0.36 0.24 65 1010.2
20260831184520 85 163 3.0 8.0 0.00 0.45 0.24 63 1010.2
20260831183010 86 316 2.0 7.0 0.00 0.45 0.24 63 1010.1
20260831181515 85 222 2.0 10.0 0.00 0.45 0.24 66 1010.1
20260831180004 84 301 3.0 10.0 0.00 0.45 0.24 66 1010.3
20260831174610 82 247 3.0 12.0 0.00 0.45 0.24 67 1010.4
20260831174503 82 273 4.0 12.0 0.00 0.45 0.24 68 1010.4
20260831173104 82 200 4.0 9.0 0.00 0.45 0.24 69 1010.5
20260831171554 81 210 5.0 12.0 0.00 0.45 0.24 69 1010.9
20260831170057 81 221 4.0 7.0 0.00 0.45 0.24 70 1011.2
20260831164553 80 247 3.0 11.0 0.00 0.45 0.24 72 1011.2
20260831163051 79 238 4.0 14.0 0.00 0.45 0.24 75 1011.4
20260831161541 77 229 6.0 11.0 0.00 0.45 0.24 78 1011.6
20260831160040 76 211 3.0 8.0 0.00 0.45 0.24 82 1011.8
20260831154537 75 221 2.0 9.0 0.00 0.45 0.24 84 1011.8
20260831153037 76 221 2.0 7.0 0.00 0.45 0.24 83 1012.1
20260831151539 76 261 5.0 14.0 0.00 0.45 0.24 84 1012.1
20260831150035 75 224 3.0 10.0 0.00 0.45 0.24 86 1012.1
20260831144548 74 223 4.0 11.0 0.00 0.45 0.24 89 1012.0
20260831143042 73 215 6.0 10.0 0.00 0.45 0.24 90 1012.0
20260831141533 71 216 4.0 10.0 0.00 0.45 0.24 92 1012.1
20260831140029 0 0.0 0.0 0.00 0.45 0.24 1012.2
20260831134525 0 0.0 0.0 0.00 0.47 0.24 1012.4
20260831133021 0 0.0 0.0 0.00 0.47 0.24 1012.7
20260831131517 0 0.0 0.0 0.00 0.47 0.24 1012.9
20260831130016 0 0.0 0.0 0.08 0.47 0.24 1012.9
20260831124510 69 235 0.0 0.0 0.20 0.50 0.24 96 1012.6
20260831123004 69 235 0.0 3.0 0.23 0.50 0.24 96 1012.6
20260831121503 69 224 0.0 6.0 0.24 0.50 0.24 96 1012.4
20260831120005 69 250 6.0 11.0 0.16 0.42 0.16 94 1012.1
20260831114557 71 35 0.0 2.0 0.04 0.32 0.04 90 1013.0
20260831113054 72 149 0.0 2.0 0.01 0.28 0.01 86 1012.8
20260831111608 73 69 1.0 7.0 0.00 0.28 0.00 84 1012.6
20260831110120 73 97 0.0 5.0 0.00 0.28 0.00 83 1011.9
20260831104548 74 219 0.0 3.0 0.00 0.28 0.00 80 1011.2
20260831103052 74 211 0.0 3.0 0.00 0.28 0.00 80 1010.9
20260831101547 74 223 1.0 6.0 0.00 0.28 0.00 80 1010.8
20260831100053 74 250 1.0 7.0 0.00 0.28 0.00 80 1011.0
20260831094544 74 219 1.0 6.0 0.00 0.28 0.00 82 1010.9
20260831093043 73 211 0.0 4.0 0.00 0.28 0.00 85 1010.8
20260831091549 73 220 1.0 5.0 0.00 0.28 0.00 85 1011.0
20260831090039 73 222 1.0 4.0 0.00 0.28 0.00 87 1011.3
20260831084547 73 235 0.0 1.0 0.00 0.28 0.00 88 1011.3
20260831083046 74 235 0.0 0.0 0.00 0.28 0.00 87 1011.3
20260831081542 74 235 0.0 2.0 0.00 0.28 0.00 86 1011.4
20260831080033 74 231 0.0 1.0 0.00 0.28 0.00 86 1011.5
20260831074540 74 231 0.0 3.0 0.00 0.28 0.00 85 1011.6
20260831073059 75 229 0.0 4.0 0.00 0.28 0.00 85 1011.8
20260831071529 75 213 0.0 5.0 0.00 0.28 0.00 85 1011.7
20260831070034 75 219 1.0 6.0 0.00 0.28 0.00 86 1011.8
20260831064536 75 227 1.0 5.0 0.00 0.28 0.00 86 1011.9
20260831063027 75 220 0.0 4.0 0.00 0.28 0.00 86 1011.9
20260831061536 75 229 1.0 6.0 0.00 0.28 0.00 85 1011.8
20260831060025 75 209 1.0 6.0 0.00 0.28 0.00 84 1011.9
20260831054526 75 222 1.0 6.0 0.00 0.28 0.00 84 1012.0
20260831053029 76 231 2.0 10.0 0.00 0.28 0.00 84 1011.9
20260831051525 76 234 1.0 10.0 0.00 0.28 0.00 86 1011.9
20260831050035 74 185 4.0 11.0 0.00 0.28 0.00 89 1011.9
20260831044519 73 244 1.0 7.0 0.00 0.28 0.28 96 1012.1
20260831043018 73 254 0.0 4.0 0.00 0.28 0.28 97 1012.2
20260831041518 72 234 0.0 4.0 0.00 0.28 0.28 97 1012.2
20260831040039 72 218 0.0 1.0 0.00 0.28 0.28 96 1012.7
20260831034522 72 218 0.0 0.0 0.00 0.28 0.28 97 1012.4
20260831033019 73 218 0.0 0.0 0.00 0.28 0.28 97 1012.5